Location: ?
(35.3436°N, 139.3168°E)
Time: 21:40:36
(UTC+00:00)

CZ-2C R/B - Pass Details

Date: 29 October 2020
Orbit: 667 x 785 km, 98.2° (Epoch: 24 November)

Event Time Altitude Azimuth Distance (km) Brightness Sun altitude
Rises 18:10:05 0° 19° (NNE) 3,171 6.0 -35.6°
Reaches altitude 10° 18:12:30 10° 26° (NNE) 2,226 5.2 -35.1°
Enters shadow 18:14:12 21° 35° (NE) 1,610 4.5 -34.7°
